STARLINK-35800 (66291 NORAD) Tracking and Keplerian Element Data

This shows tracking and keplerian element data for the satellite.

Feedback or suggestion? Click here.




ElementValue
Catalog66291
NameSTARLINK-35800
Epoch Orbit869
Epoch Day352.88437205
Epoch Year2025
RAAN208.0772
Inclination53.1585
Eccentricity0.0001076
Argument of Perigee43.7041
Mean Anonmoly316.4049
Mean Motion15.39607927
Decay Rate0.00024763
L11 66291U 25247AC 25352.88437205 .00024763 00000+0 62728-3 0 9997
L22 66291 53.1585 208.0772 0001076 43.7041 316.4049 15.39607927 8691



Live tracking and technical data element details for STARLINK-35800 (NORAD 66291). STARLINK-35800 can be tracked NOW for your location showing map with azimuth and elevation plus other details from your city location.







IsCatalogInMostPopularTable: catalog: 66291, numindb: 7
Update: records affected: 1



GetName: 66291 STARLINK-35800

Hit Count: updated at: Wed, 15 Apr 2026 01:17:36 GMT